Regional Weather Roundup
Issued by NWS

Home | Current Version | Previous Version | Graphics & Text | Print | Product List | Glossary On
Versions: 1 2 3 4 5 6 7 8 9 10 11 12 13 14 15 16 17 18 19 20 21 22 23 24 25 26 27 28 29 30 31 32 33 34 35 36 37 38 39 40 41 42 43 44 45 46 47 48 49 50
101
ASUS43 KDMX 061401
RWRIA

WEATHER ROUNDUP FOR IOWA
NATIONAL WEATHER SERVICE DES MOINES IA
800 AM CST TUE DEC 06 2016

NOTE: "FAIR" INDICATES FEW OR NO CLOUDS BELOW 12,000 FEET WITH NO
SIGNIFICANT WEATHER AND/OR OBSTRUCTIONS TO VISIBILITY.

* - THESE STATIONS ARE NOT NWS STATIONS...THUS NOT UNDER NWS
QUALITY CONTROL.  THEY ALSO DO NOT REPORT WEATHER SUCH
AS PRECIPITATION OR FOG.

IAZ001>003-012>014-020>022-031>034-043>046-061500-
   NORTHWEST IOWA

CITY           SKY/WX    TMP DP  RH WIND       PRES   REMARKS
CARROLL *      CLEAR     21  16  79 W13G18    29.92S WCI   9
CHEROKEE *     CLEAR     17  12  80 W10       29.91F WCI   5
DENISON *      CLEAR     19  12  73 W12       29.92F WCI   7
LE MARS *      MOCLDY    19  12  73 W9G15     29.93S WCI   9
ORANGE CITY *  CLEAR     18  12  79 W29       29.88R WCI  -2
SHELDON *      FLURRIES  18  14  86 W22G31    29.85R WCI   0
SIOUX CITY     CLEAR     19  11  70 W7        29.95S WCI  10
SPENCER        CLOUDY    18  11  74 W21G30    29.86S WCI   1
STORM LAKE *   CLEAR     18  10  73 W21G28    29.88F WCI   1
$$

IAZ055>058-069>071-079>083-090>094-061500-
   SOUTHWEST IOWA

CITY           SKY/WX    TMP DP  RH WIND       PRES   REMARKS
ATLANTIC *     PTCLDY    23  16  74 NW15      29.95R WCI  10
AUDUBON *      CLEAR     21  12  68 W14G23    29.92R WCI   8
CLARINDA *       N/A     27  18  69 NW8       30.00R WCI  18
COUNCIL BLFS * CLEAR     21  12  68 W12       29.98S WCI   9
CRESTON *      PTCLDY    25  16  68 NW20G25   29.93S WCI  11
HARLAN  *      CLEAR     21  14  73 NW10      29.99S WCI  10
LAMONI         MOCLDY    28  20  71 NW16G23   29.92R WCI  16
RED OAK *      CLEAR     23  14  68 NW12G22   29.98R WCI  12
SHENANDOAH *   PTCLDY    25  14  63 NW7G14    30.01R WCI  17
$$

IAZ047>049-059>061-072>074-084-061500-
   CENTRAL IOWA

CITY           SKY/WX    TMP DP  RH WIND       PRES   REMARKS
AMES           PTCLDY    25  19  78 W21G28    29.89R WCI  11
ANKENY *       MOCLDY    27 N/A N/A W21G26    29.91R WCI  13
BOONE *        PTCLDY    23  16  74 W22G33    29.87S WCI   8
CHARITON *       N/A     30  25  80 NW10G17   29.89R WCI  21
DES MOINES     PTCLDY    28  18  66 NW17      29.90R WCI  16
GRINNELL*      CLOUDY    30  25  80 NW17G23   29.86R WCI  18
KNOXVILLE *    CLOUDY    30  19  64 NW14      29.88R WCI  20
MARSHALLTOWN   MOCLDY    27  20  75 W25       29.86R WCI  12
NEWTON *       CLOUDY    28  21  74 NW20      29.87R WCI  15
PELLA *        PTCLDY    31  23  74 NW20      29.89R WCI  18
PERRY *          N/A     25  20  80 W20       29.92R WCI  11
$$

IAZ004>006-015-016-023>025-035-036-061500-
   NORTH CENTRAL IOWA

CITY           SKY/WX    TMP DP  RH WIND       PRES   REMARKS
ALGONA *       PTCLDY    19  16  86 W16G24    29.84F WCI   5
CLARION *      PTCLDY    23  19  86 W18       29.86S WCI   9
ESTHERVILLE    PTCLDY    17  11  77 W17G29    29.83R WCI   1
FORT DODGE *   PTCLDY    21  12  68 W10G24    29.89R WCI  10
MASON CITY     CLEAR     21  15  78 W21G28    29.83R WCI   5
WEBSTER CITY * CLOUDY    25  21  86 W16       29.85F WCI  12
IOWA FALLS *     N/A     26  20  80 W22G30    29.85F WCI  11
$$

IAZ007>011-017>019-026>030-037>042-050>054-066-061500-
   NORTHEAST IOWA

CITY           SKY/WX    TMP DP  RH WIND       PRES   REMARKS
CEDAR RAPIDS   CLOUDY    32  31  96 W16       29.81R WCI  21
CHARLES CITY * CLOUDY    27  21  80 W23G30    29.81R WCI  12
CLINTON *      FOG       33  32  96 CALM      29.80F VSB 1/4
DECORAH *      LGT SNOW  30  28  93 W7G18     29.76R WCI  23
DUBUQUE        FOG       32  32 100 SW7       29.78F VSB 1/4 WCI  26
MONTICELLO *   FOG       34  32  93 SW3       29.78F VSB 3/4
OELWEIN *      CLOUDY    30  28  93 W15       29.79S WCI  19
WATERLOO       CLOUDY    29  22  75 W16G26    29.82R WCI  17
$$

IAZ064-065-067-068-078-061500-
   EAST CENTRAL IOWA

CITY           SKY/WX    TMP DP  RH WIND       PRES   REMARKS
DAVENPORT      FOG       32  32 100 SE3       29.79F VSB 1/4
IOWA CITY      CLOUDY    35  32  88 NW9       29.83R WCI  28
MUSCATINE *    CLOUDY    36  34  93 W6        29.82R FOG     WCI  31
QUAD CITIES    FOG       34  32  92 CALM      29.80S VSB 1/4
$$

IAZ062-063-075>077-085>089-095>099-061500-
   SOUTHEAST IOWA

CITY           SKY/WX    TMP DP  RH WIND       PRES   REMARKS
BURLINGTON     CLOUDY    34  34 100 CALM      29.81S FOG
FAIRFIELD *    CLOUDY    34  30  86 NW16G22   29.84R WCI  23
FORT MADISON * CLOUDY    36  36 100 W5        29.83R FOG     WCI  32
KEOKUK *       FOG       36  36 100 W6        29.82R VSB 1   WCI  31
OSKALOOSA *    CLOUDY    31  28  86 NW17G23   29.87R WCI  20
CENTERVILLE *  MOCLDY    32  27  80 NW15      29.90R WCI  22
OTTUMWA        CLOUDY    33  27  78 NW16G23   29.85R WCI  23
WASHINGTON *   CLOUDY    36  34  93 NW13G18   29.84R WCI  27
$$

ABBREVIATIONS USED IN REMARKS
   TC - TEMPERATURES IN CELSIUS
  WCI - WIND CHILL INDEX
   HX - HEAT INDEX
  VSB - VISIBILITY
$$





USA.gov is the U.S. government's official web portal to all federal, state and local government web resources and services.